Portada
METAR-TAF:

METAR-TAF

Aeroports :

Mildura, Austràlia

latitud: 34-13-45S, longitud: 142-05-08E, altitud: 51 m

Observació

L'informe es va fer fa 48 minuts, a les 22:30 UTC
Vent 6 kt del Oest/Sud-Oest
Temperatura 16°C
Humitat 88%
Pressió 1012 hPa
Visibilitat 10 km o més
Cel cobert a una alçada de 1400 ft

METAR: YMIA 012230Z AUTO 25006KT 9999 // OVC014 16/14 Q1012

Hora: 10:18 (23:18 UTC)


TAF: manca

Observacions i pronòstics meteorològics de més de 4000 aeroports (METAR i TAF).

Les estacions disponibles són els punts grocs i vermells al mapa.

Posi el ratolí al punt desitjat per veure el nom de l'estació.

Feu clic per veure les observacions i els pronòstics meteorològics.

Per canviar el mapa: feu clic els botons verds amb una creu de color negre per apropar; al botó verd amb un guió per allunyar la imatge; o en les fletxes verdes per a mapes adjacents.


METAR-TAF: